Tracking 19636 objects as of 24-May-2019
HD Live streaming from Space Station
objects crossing your sky now

SL-14 R/B

Track SL-14 R/B now!
10-day predictions
SL-14 R/B is classified as:


NORAD ID: 17912
Int'l Code: 1987-038B
Perigee: 611.7 km
Apogee: 642.2 km
Inclination: 82.5 °
Period: 97.1 minutes
Semi major axis: 6997 km
RCS: 4.8281 m2 (large)
Launch date: April 27, 1987
Source: Commonwealth of Independent States (former USSR) (CIS)
Launch site: PLESETSK MISSILE AND SPACE COMPLEX (PKMTR)

Note: This is a ROCKET BODY
aabbcc
Your satellite tracking list
Your tracking list is empty




NASA's NSSDC Master Catalog

Two Line Element Set (TLE):
1 17912U 87038B   19143.06140871  .00000054  00000-0  36550-5 0  9994
2 17912  82.5007 108.9828 0021769  70.8920 289.4649 14.83008447732194
Source of the keplerian elements: AFSPC